Location: Pitton
(51.0667°N, 1.7000°W)
Time: 22:55:55
(UTC+00:00)

Cosmos 1437 Rocket - Pass Details

Date: 17 September 2019
Orbit: 506 x 563 km, 81.2° (Epoch: 14 October)

Event Time Altitude Azimuth Distance (km) Brightness Sun altitude
Rises 19:25:38 0° 358° (N) 2,656 6.6 -11.4°
Reaches altitude 10° 19:28:14 10° 15° (NNE) 1,754 5.4 -11.7°
Maximum altitude 19:31:09 20° 65° (ENE) 1,226 4.2 -12.2°
Enters shadow 19:32:15 18° 88° (E) 1,310 4.2 -12.3°
